Weather History for Sturgeon Bay, WI

Change the Weather History Date:

Tuesday, September 17, 2013

  Actual Average Record
Temperature  
Mean Temperature 52 °F -  
Max Temperature 62 °F 67 °F 87 °F (1948)
Min Temperature 42 °F 50 °F 30 °F (1959)
Degree Days  
Heating Degree Days 13    
Growing Degree Days 2 (Base 50)    
Moisture  
Dew Point 47 °F    
Average Humidity 79    
Maximum Humidity 93    
Minimum Humidity 68    
Precipitation  
Precipitation 0.00 in - - ()
Sea Level Pressure  
Sea Level Pressure 30.28 in    
Wind  
Wind Speed 5 mph (SSE)    
Max Wind Speed 15 mph    
Max Gust Speed 21 mph    
Visibility 10 miles    
Events      
Averages and records for this station are not official NWS values.
T = Trace of Precipitation, MM = Missing Value Source: NWS Daily Summary

Daily Weather History Graph

Daily Weather History Graph

Search for Another Location

Airport:

Trip Planner

Search our weather history database for the weather conditions in past years. The results will help you decide how hot, cold, wet, or windy it might be!

Date:

Astronomy

Sep. 17, 2013 Rise Set
Actual Time 6:31 AM CDT 6:56 PM CDT
Civil Twilight 6:01 AM CDT 7:25 PM CDT
Nautical Twilight 5:27 AM CDT 8:00 PM CDT
Astronomical Twilight 4:51 AM CDT 8:35 PM CDT
Moon 5:45 PM CDT (9/17) 4:21 AM CDT (9/17)
Length of Visible Light 13h 23m
Length of Day
12h 25m
Waxing Gibbous, 96% of the Moon is Illuminated
Sep 17
Waxing Gibbous
Sep 19
Full
Sep 26
Last Quarter
Oct 4
New
Oct 11
First Quarter

Hourly Weather History & Observations

Time (CDT) Temp. Windchill Dew Point Humidity Pressure Visibility Wind Dir Wind Speed Gust Speed Precip Events Conditions
12:15 AM 42.8 °F - 35.6 °F 76% 30.37 in 10.0 mi Calm Calm - N/A   Clear
12:35 AM 42.8 °F 41.1 °F 35.6 °F 76% 30.37 in 10.0 mi SSE 3.5 mph - N/A   Clear
12:55 AM 42.8 °F 41.1 °F 37.4 °F 81% 30.37 in 10.0 mi SE 3.5 mph - N/A   Clear
1:15 AM 42.8 °F - 37.4 °F 81% 30.37 in 10.0 mi Calm Calm - N/A   Clear
1:35 AM 42.8 °F 40.1 °F 39.2 °F 87% 30.37 in 10.0 mi South 4.6 mph - N/A   Clear
1:55 AM 42.8 °F 41.1 °F 39.2 °F 87% 30.37 in 10.0 mi SSE 3.5 mph - N/A   Clear
2:15 AM 42.8 °F 40.1 °F 39.2 °F 87% 30.37 in 10.0 mi SSE 4.6 mph - N/A   Clear
2:35 AM 44.6 °F 42.2 °F 41.0 °F 87% 30.37 in 10.0 mi South 4.6 mph - N/A   Clear
2:55 AM 46.4 °F 44.3 °F 41.0 °F 81% 30.36 in 10.0 mi SSE 4.6 mph - N/A   Clear
3:15 AM 46.4 °F 44.3 °F 42.8 °F 87% 30.36 in 10.0 mi SSE 4.6 mph - N/A   Clear
3:35 AM 46.4 °F 45.2 °F 42.8 °F 87% 30.36 in 10.0 mi South 3.5 mph - N/A   Clear
3:55 AM 44.6 °F 43.1 °F 41.0 °F 87% 30.36 in 10.0 mi SSE 3.5 mph - N/A   Clear
4:15 AM 44.6 °F 43.1 °F 42.8 °F 93% 30.35 in 10.0 mi SSE 3.5 mph - N/A   Clear
4:35 AM 46.4 °F - 42.8 °F 87% 30.35 in 10.0 mi Calm Calm - N/A   Clear
4:55 AM 44.6 °F 43.1 °F 41.0 °F 87% 30.35 in 10.0 mi South 3.5 mph - N/A   Clear
5:15 AM 44.6 °F 42.2 °F 41.0 °F 87% 30.35 in 10.0 mi SSW 4.6 mph - N/A   Clear
5:35 AM 44.6 °F - 41.0 °F 87% 30.36 in 10.0 mi Calm Calm - N/A   Partly Cloudy
5:55 AM 44.6 °F - 42.8 °F 93% 30.36 in 10.0 mi Calm Calm - N/A   Scattered Clouds
6:15 AM 44.6 °F - 42.8 °F 93% 30.36 in 10.0 mi Calm Calm - N/A   Mostly Cloudy
6:35 AM 44.6 °F - 42.8 °F 93% 30.36 in 10.0 mi Calm Calm - N/A   Mostly Cloudy
6:55 AM 44.6 °F - 42.8 °F 93% 30.37 in 10.0 mi Calm Calm - N/A   Overcast
7:15 AM 46.4 °F - 42.8 °F 87% 30.36 in 10.0 mi Calm Calm - N/A   Overcast
7:35 AM 48.2 °F - 44.6 °F 87% 30.36 in 10.0 mi Calm Calm - N/A   Overcast
7:55 AM 50.0 °F - 46.4 °F 87% 30.37 in 10.0 mi Calm Calm - N/A   Overcast
8:15 AM 51.8 °F - 46.4 °F 82% 30.37 in 10.0 mi Calm Calm - N/A   Overcast
8:35 AM 51.8 °F - 46.4 °F 82% 30.37 in 10.0 mi Calm Calm - N/A   Overcast
8:55 AM 53.6 °F - 46.4 °F 77% 30.37 in 10.0 mi Calm Calm - N/A   Mostly Cloudy
9:15 AM 55.4 °F - 48.2 °F 77% 30.36 in 10.0 mi SSW 3.5 mph - N/A   Mostly Cloudy
9:35 AM 57.2 °F - 50.0 °F 77% 30.36 in 10.0 mi SSE 5.8 mph - N/A   Mostly Cloudy
9:55 AM 57.2 °F - 50.0 °F 77% 30.35 in 10.0 mi South 9.2 mph - N/A   Partly Cloudy
10:15 AM 59.0 °F - 51.8 °F 77% 30.35 in 10.0 mi South 11.5 mph - N/A   Mostly Cloudy
10:35 AM 60.8 °F - 51.8 °F 72% 30.34 in 10.0 mi South 13.8 mph - N/A   Overcast
10:55 AM 60.8 °F - 51.8 °F 72% 30.34 in 10.0 mi SSE 10.4 mph - N/A   Overcast
11:15 AM 60.8 °F - 51.8 °F 72% 30.34 in 10.0 mi South 10.4 mph - N/A   Overcast
11:35 AM 60.8 °F - 51.8 °F 72% 30.33 in 10.0 mi South 11.5 mph 17.3 mph N/A   Mostly Cloudy
11:55 AM 60.8 °F - 50.0 °F 68% 30.33 in 10.0 mi SSE 11.5 mph 16.1 mph N/A   Overcast
12:15 PM 60.8 °F - 51.8 °F 72% 30.32 in 10.0 mi SSE 9.2 mph - N/A   Overcast
12:35 PM 62.6 °F - 51.8 °F 68% 30.31 in 10.0 mi SSE 11.5 mph - N/A   Mostly Cloudy
12:55 PM 60.8 °F - 51.8 °F 72% 30.30 in 10.0 mi SSE 12.7 mph - N/A   Mostly Cloudy
1:15 PM 62.6 °F - 51.8 °F 68% 30.30 in 10.0 mi SSE 12.7 mph - N/A   Mostly Cloudy
1:35 PM 62.6 °F - 51.8 °F 68% 30.29 in 10.0 mi SSE 15.0 mph 19.6 mph N/A   Mostly Cloudy
1:55 PM 62.6 °F - 51.8 °F 68% 30.28 in 10.0 mi South 15.0 mph - N/A   Mostly Cloudy
2:15 PM 60.8 °F - 51.8 °F 72% 30.27 in 10.0 mi South 12.7 mph 17.3 mph N/A   Mostly Cloudy
2:35 PM 62.6 °F - 51.8 °F 68% 30.27 in 10.0 mi SE 10.4 mph 17.3 mph N/A   Mostly Cloudy
2:55 PM 60.8 °F - 51.8 °F 72% 30.26 in 10.0 mi SSE 12.7 mph - N/A   Mostly Cloudy
3:15 PM 60.8 °F - 51.8 °F 72% 30.25 in 10.0 mi SSE 12.7 mph 20.7 mph N/A   Mostly Cloudy
3:35 PM 60.8 °F - 51.8 °F 72% 30.24 in 10.0 mi SSE 13.8 mph 19.6 mph N/A   Scattered Clouds
3:55 PM 60.8 °F - 51.8 °F 72% 30.23 in 10.0 mi SSE 12.7 mph 20.7 mph N/A   Mostly Cloudy
4:15 PM 60.8 °F - 51.8 °F 72% 30.23 in 10.0 mi SSE 15.0 mph 20.7 mph N/A   Mostly Cloudy
4:35 PM 60.8 °F - 51.8 °F 72% 30.22 in 10.0 mi SSE 13.8 mph 18.4 mph N/A   Mostly Cloudy
4:55 PM 59.0 °F - 51.8 °F 77% 30.22 in 10.0 mi SSE 10.4 mph 16.1 mph N/A   Mostly Cloudy
5:15 PM 59.0 °F - 51.8 °F 77% 30.21 in 10.0 mi SSE 15.0 mph 18.4 mph N/A   Scattered Clouds
5:35 PM 59.0 °F - 51.8 °F 77% 30.20 in 10.0 mi SSE 15.0 mph 18.4 mph N/A   Scattered Clouds
5:55 PM 57.2 °F - 50.0 °F 77% 30.20 in 10.0 mi South 10.4 mph 17.3 mph N/A   Partly Cloudy
6:15 PM 57.2 °F - 50.0 °F 77% 30.20 in 10.0 mi South 8.1 mph - N/A   Scattered Clouds
6:35 PM 57.2 °F - 50.0 °F 77% 30.19 in 10.0 mi South 8.1 mph - N/A   Scattered Clouds
6:55 PM 55.4 °F - 48.2 °F 77% 30.18 in 10.0 mi South 6.9 mph - N/A   Clear
7:15 PM 55.4 °F - 48.2 °F 77% 30.18 in 10.0 mi South 8.1 mph - N/A   Clear
7:35 PM 55.4 °F - 48.2 °F 77% 30.17 in 10.0 mi SSE 9.2 mph - N/A   Clear
7:55 PM 55.4 °F - 48.2 °F 77% 30.18 in 10.0 mi South 9.2 mph - N/A   Clear
8:15 PM 55.4 °F - 48.2 °F 77% 30.18 in 10.0 mi South 8.1 mph - N/A   Clear
8:35 PM 55.4 °F - 48.2 °F 77% 30.18 in 10.0 mi South 5.8 mph - N/A   Clear
8:55 PM 55.4 °F - 48.2 °F 77% 30.17 in 10.0 mi South 5.8 mph - N/A   Clear
9:15 PM 55.4 °F - 48.2 °F 77% 30.16 in 10.0 mi South 8.1 mph - N/A   Clear
9:35 PM 55.4 °F - 48.2 °F 77% 30.16 in 10.0 mi South 8.1 mph - N/A   Clear
9:55 PM 55.4 °F - 48.2 °F 77% 30.16 in 10.0 mi SSE 8.1 mph - N/A   Clear
10:15 PM 55.4 °F - 48.2 °F 77% 30.16 in 10.0 mi South 8.1 mph - N/A   Clear
10:35 PM 55.4 °F - 48.2 °F 77% 30.15 in 10.0 mi South 5.8 mph - N/A   Clear
10:55 PM 55.4 °F - 48.2 °F 77% 30.15 in 10.0 mi South 6.9 mph - N/A   Clear
11:15 PM 55.4 °F - 50.0 °F 82% 30.14 in 10.0 mi South 6.9 mph - N/A   Clear
11:35 PM 55.4 °F - 50.0 °F 82% 30.14 in 10.0 mi South 6.9 mph - N/A   Clear
11:55 PM 55.4 °F - 50.0 °F 82% 30.13 in 10.0 mi South 6.9 mph - N/A   Clear